Location: Vancouver
(49.2500°N, 123.1330°W)
Time: 15:24:13
(UTC-07:00)

Iridium 21 - Visible Passes

Search period start: 29 March 2015 00:00
Search period end: 08 April 2015 00:00
Orbit: 776 x 779 km, 86.4° (Epoch: 29 March)

Date Brightness Start Highest point End Pass type
(mag) Time Alt. Az. Time Alt. Az. Time Alt. Az.
29 Mar 7.8 01:23:41 18° NE 01:23:41 18° NE 01:25:35 10° NNE visible
29 Mar 6.9 03:04:09 31° NNW 03:04:09 31° NNW 03:07:03 10° N visible
30 Mar 8.1 00:50:11 12° NE 00:50:11 12° NE 00:50:56 10° NE visible
30 Mar 7.0 02:30:38 34° N 02:30:38 34° N 02:33:34 10° N visible
30 Mar 7.6 04:11:07 14° NW 04:11:07 14° NW 04:12:42 10° NNW visible
31 Mar 7.2 01:57:08 30° NNE 01:57:08 30° NNE 01:59:54 10° NNE visible
31 Mar 7.3 03:37:36 20° NW 03:37:36 20° NW 03:40:06 10° NNW visible
01 Apr 7.5 01:23:37 23° NE 01:23:37 23° NE 01:26:01 10° NNE visible
01 Apr 7.0 03:04:05 28° NNW 03:04:05 28° NNW 03:06:59 10° N visible
02 Apr 7.9 00:50:06 16° NE 00:50:06 16° NE 00:51:47 10° NNE visible
02 Apr 6.8 02:30:34 35° NNW 02:30:34 35° NNW 02:33:38 10° N visible
02 Apr 7.9 04:11:02 10° NW 04:11:02 10° NW 04:11:17 10° NW visible
03 Apr 6.9 01:57:02 35° NNE 01:57:02 35° NNE 02:00:05 10° N visible
03 Apr 7.5 03:37:30 16° NW 03:37:30 16° NW 03:39:42 10° NNW visible
04 Apr 7.2 01:23:31 29° NE 01:23:31 29° NE 01:26:20 10° NNE visible
04 Apr 7.2 03:03:58 24° NW 03:03:58 24° NW 03:06:51 10° NNW visible
05 Apr 7.5 00:49:58 21° NE 00:49:58 21° NE 00:52:20 10° NNE visible
05 Apr 6.9 02:30:26 33° NNW 02:30:26 33° NNW 02:33:37 10° N visible
06 Apr 7.9 00:16:26 14° NE 00:16:26 14° NE 00:17:51 10° NE visible
06 Apr 6.7 01:56:53 39° N 01:56:53 39° N 02:00:10 10° N visible
06 Apr 7.7 03:37:21 13° NW 03:37:21 13° NW 03:38:57 10° NW visible
07 Apr 6.8 01:23:20 36° NNE 01:23:20 36° NNE 01:26:32 10° N visible
07 Apr 7.4 03:03:48 20° NW 03:03:48 20° NW 03:06:33 10° NNW visible
